DW3219 Weather Reports


Display with metric or nautical units.
time (UTC)temp
F
wind
direction
speed
MPH
gust
MPH
rain 1hr
in
rain 24hr
in
rain mn
in
humidity
%
barometer
mb
20260504041541 60 306 0.0 0.0 0.00 0.00 0.00 29 1002.6
20260504040027 61 306 0.0 0.0 0.00 0.00 0.00 27 1002.6
20260504034524 62 306 0.0 0.0 0.00 0.00 0.00 26 1002.6
20260504033020 63 306 0.0 0.0 0.00 0.00 0.00 23 1002.5
20260504031520 65 309 0.0 0.0 0.00 0.00 0.00 21 1002.3
20260504030013 67 302 0.0 0.0 0.00 0.00 0.00 19 1002.2
20260504024509 68 313 0.0 0.0 0.00 0.00 0.00 19 1002.1
20260504023005 70 311 0.0 3.0 0.00 0.00 0.00 18 1002.0
20260504021501 72 319 0.0 2.0 0.00 0.00 0.00 17 1001.9
20260504020044 73 325 0.0 7.0 0.00 0.00 0.00 17 1001.9
20260504014541 74 336 0.0 10.0 0.00 0.00 0.00 17 1001.9
20260504013032 75 280 0.0 4.0 0.00 0.00 0.00 18 1001.9
20260504011522 75 279 0.0 1.0 0.00 0.00 0.00 19 1002.0
20260504010002 74 284 0.0 9.0 0.00 0.00 0.00 18 1002.2
20260504004502 75 288 0.0 9.0 0.00 0.00 0.00 18 1002.2
20260504003053 75 278 0.0 6.0 0.00 0.00 0.00 17 1002.4
20260504001549 75 288 0.0 10.0 0.00 0.00 0.00 18 1002.6
20260504000112 75 287 0.0 11.0 0.00 0.00 0.00 18 1002.7
20260503234552 76 271 4.0 13.0 0.00 0.00 0.00 18 1002.9
20260503233043 76 321 0.0 6.0 0.00 0.00 0.00 18 1003.0
20260503231541 75 288 0.0 12.0 0.00 0.00 0.00 18 1003.2
20260503230039 75 24 0.0 14.0 0.00 0.00 0.00 19 1003.3
20260503224537 75 317 0.0 15.0 0.00 0.00 0.00 19 1003.5
20260503223017 75 306 8.0 15.0 0.00 0.00 0.00 20 1003.8
20260503221514 74 246 5.0 15.0 0.00 0.00 0.00 21 1004.0
20260503220002 74 336 6.0 13.0 0.00 0.00 0.00 21 1004.2
20260503214558 74 311 2.0 15.0 0.00 0.00 0.00 23 1004.5
20260503213102 73 276 4.0 14.0 0.00 0.00 0.00 22 1004.7
20260503211608 73 307 0.0 11.0 0.00 0.00 0.00 23 1005.1
20260503210051 73 287 7.0 17.0 0.00 0.00 0.00 23 1005.4
20260503204549 73 355 6.0 12.0 0.00 0.00 0.00 23 1005.7
20260503203104 73 345 8.0 15.0 0.00 0.00 0.00 22 1005.8
20260503201546 72 273 1.0 10.0 0.00 0.00 0.00 21 1006.0
20260503200027 73 273 3.0 9.0 0.00 0.00 0.00 21 1006.2
20260503194526 72 275 0.0 14.0 0.00 0.00 0.00 21 1006.3
20260503193012 72 321 1.0 7.0 0.00 0.00 0.00 23 1006.7
20260503191510 71 301 2.0 12.0 0.00 0.00 0.00 25 1006.9
20260503190008 69 258 2.0 13.0 0.00 0.00 0.00 27 1007.3
20260503184508 69 250 0.0 6.0 0.00 0.00 0.00 29 1007.6
20260503183005 68 265 1.0 10.0 0.00 0.00 0.00 29 1007.9
20260503181504 68 279 0.0 5.0 0.00 0.00 0.00 30 1008.3
20260503180002 68 5 0.0 7.0 0.00 0.00 0.00 31 1008.5
20260503174559 67 236 0.0 4.0 0.00 0.00 0.00 32 1008.8
20260503173055 66 217 0.0 4.0 0.00 0.00 0.00 34 1008.9
20260503171545 64 187 0.0 7.0 0.00 0.00 0.00 37 1009.2
20260503081529 51 272 0.0 0.0 0.00 0.00 0.00 56 1010.7
20260503071605 54 281 0.0 0.0 0.00 0.00 0.00 49 1010.7
20260503070105 54 287 0.0 0.0 0.00 0.00 0.00 48 1010.7
20260503054518 58 294 0.0 1.0 0.00 0.00 0.00 40 1010.5
20260503053017 60 328 0.0 10.0 0.00 0.00 0.00 39 1010.6
20260503051513 60 360 0.0 8.0 0.00 0.00 0.00 40 1010.4
20260503050012 61 38 1.0 13.0 0.00 0.00 0.00 40 1010.1
20260503044522 61 56 1.0 11.0 0.00 0.00 0.00 39 1010.2
20260503043011 61 70 7.0 18.0 0.00 0.00 0.00 39 1010.3